User: anonymous   Login
Location: Unspecified
(0.0000°N, 0.0000°E)
Time: 00:14:35
(UTC+00:00)
Language:

Chunghua 1 - Orbit

View from above orbital plane
View from above orbital plane
View from above satellite
View from above satellite

Ground track
Ground track

The orbit data is extracted from the following two-line orbital elements,

1 25616U 99002A   18112.08096569 +.00002712 +00000-0 +98289-4 0  9998
2 25616 034.9496 349.4381 0023314 046.3191 313.9452 15.27706541056439
Epoch (UTC): 22 April 2018 01:56:35
Eccentricity: 0.0023314
inclination: 34.9496°
perigee height: 466 km
apogee height: 498 km
right ascension of ascending node: 349.4381°
argument of perigee: 46.3191°
revolutions per day: 15.27706541
mean anomaly at epoch: 313.9452°
orbit number at epoch: 5643

The dashed part of the orbit path shows where the satellite is in the earth's shadow,  

DLR